QPF
0.00 0.00 0.01 0.01 0.01 0.01 0.02 0.03 0.02 0.01 0.01 0.01 0.00 0.00 0.01 0.02 0.03 0.02 0.02 0.02 0.02 0.02 0.03 0.03 0.03 0.02 0.02 0.03 0.03 0.05 0.05 0.04 0.03 0.02 0.02 0.02 0.01 0.01 0.01 0.01 0.01 0.01 0.01 0.02
0.01 0.00 0.01 0.01 0.01 0.00 0.00 0.01 0.01 0.01 0.01 0.00 0.00 0.00 0.00 0.01 0.03 0.02 0.02 0.02 0.02 0.03 0.03 0.03 0.04 0.03 0.02 0.03 0.03 0.04 0.04 0.03 0.03 0.03 0.03 0.03 0.03 0.02 0.02 0.02 0.02 0.01 0.01 0.01
0.01 0.01 0.01 0.01 0.00 0.00 0.00 0.00 0.01 0.01 0.00 0.00 0.00 0.00 0.01 0.01 0.03 0.02 0.02 0.02 0.02 0.03 0.04 0.04 0.04 0.04 0.03 0.03 0.03 0.03 0.03 0.03 0.03 0.03 0.04 0.04 0.05 0.05 0.04 0.03 0.03 0.03 0.02 0.02
0.03 0.01 0.02 0.01 0.00 0.00 0.00 0.01 0.01 0.00 0.00 0.01 0.01 0.01 0.01 0.01 0.02 0.03 0.02 0.02 0.03 0.03 0.03 0.03 0.04 0.04 0.03 0.03 0.03 0.03 0.03 0.04 0.04 0.04 0.04 0.05 0.06 0.08 0.06 0.05 0.05 0.04 0.03 0.02
0.03 0.02 0.01 0.00 0.00 0.00 0.01 0.01 0.01 0.01 0.01 0.01 0.01 0.01 0.01 0.01 0.01 0.03 0.03 0.03 0.04 0.04 0.03 0.03 0.03 0.04 0.04 0.04 0.03 0.03 0.03 0.04 0.04 0.04 0.05 0.06 0.07 0.08 0.07 0.06 0.05 0.05 0.04 0.03
0.04 0.03 0.01 0.00 0.00 0.00 0.01 0.01 0.01 0.01 0.01 0.01 0.01 0.01 0.01 0.01 0.01 0.02 0.03 0.04 0.04 0.03 0.03 0.03 0.03 0.02 0.03 0.03 0.04 0.04 0.04 0.04 0.04 0.04 0.06 0.07 0.07 0.07 0.07 0.06 0.06 0.06 0.06 0.05
0.02 0.02 0.00 0.00 0.00 0.01 0.01 0.01 0.01 0.02 0.02 0.02 0.02 0.01 0.01 0.01 0.01 0.01 0.02 0.03 0.03 0.03 0.02 0.03 0.03 0.02 0.02 0.02 0.03 0.03 0.04 0.04 0.04 0.05 0.05 0.06 0.06 0.06 0.06 0.06 0.06 0.05 0.05 0.06
0.01 0.02 0.00 0.00 0.00 0.01 0.02 0.01 0.01 0.01 0.01 0.01 0.01 0.01 0.01 0.01 0.01 0.01 0.01 0.02 0.02 0.03 0.02 0.02 0.03 0.04 0.03 0.02 0.02 0.03 0.04 0.05 0.06 0.06 0.06 0.06 0.06 0.06 0.06 0.05 0.05 0.05 0.04 0.05
0.01 0.00 0.00 0.00 0.00 0.01 0.01 0.01 0.01 0.01 0.01 0.01 0.01 0.01 0.02 0.01 0.01 0.01 0.01 0.01 0.01 0.02 0.02 0.02 0.03 0.03 0.04 0.04 0.04 0.05 0.05 0.06 0.07 0.08 0.07 0.06 0.06 0.06 0.05 0.05 0.05 0.05 0.04 0.04
0.01 0.00 0.00 0.00 0.01 0.01 0.01 0.01 0.00 0.00 0.00 0.00 0.01 0.01 0.01 0.01 0.01 0.01 0.01 0.01 0.01 0.01 0.01 0.02 0.02 0.03 0.04 0.05 0.06 0.06 0.07 0.08 0.08 0.08 0.08 0.07 0.07 0.06 0.05 0.05 0.05 0.04 0.04 0.04
0.01 0.00 0.01 0.01 0.01 0.01 0.00 0.00 0.00 0.00 0.00 0.00 0.01 0.00 0.00 0.00 0.01 0.01 0.01 0.01 0.01 0.01 0.01 0.02 0.02 0.03 0.04 0.05 0.05 0.06 0.07 0.08 0.08 0.08 0.07 0.06 0.06 0.05 0.06 0.06 0.06 0.05 0.05 0.04
0.01 0.01 0.01 0.01 0.01 0.01 0.00 0.00 0.00 0.00 0.00 0.00 0.00 0.00 0.00 0.00 0.00 0.01 0.01 0.01 0.01 0.01 0.01 0.02 0.02 0.03 0.04 0.05 0.05 0.05 0.06 0.06 0.06 0.07 0.07 0.05 0.05 0.05 0.06 0.07 0.06 0.05 0.05 0.04
0.01 0.01 0.01 0.01 0.01 0.01 0.01 0.00 0.00 0.00 0.00 0.00 0.00 0.00 0.00 0.00 0.00 0.01 0.01 0.00 0.01 0.01 0.02 0.02 0.02 0.04 0.05 0.05 0.05 0.06 0.06 0.06 0.06 0.07 0.07 0.06 0.04 0.04 0.06 0.07 0.06 0.05 0.05 0.05
0.01 0.00 0.00 0.00 0.01 0.01 0.01 0.00 0.00 0.00 0.00 0.00 0.00 0.00 0.00 0.00 0.00 0.00 0.01 0.01 0.01 0.01 0.02 0.02 0.03 0.04 0.05 0.06 0.06 0.06 0.05 0.05 0.05 0.06 0.07 0.06 0.05 0.04 0.05 0.05 0.05 0.05 0.06 0.05
0.01 0.01 0.00 0.00 0.00 0.00 0.00 0.00 0.00 0.00 0.00 0.00 0.00 0.00 0.00 0.00 0.00 0.00 0.01 0.01 0.01 0.01 0.02 0.03 0.03 0.04 0.05 0.06 0.07 0.07 0.06 0.06 0.05 0.05 0.06 0.06 0.05 0.05 0.04 0.04 0.04 0.05 0.05 0.05
0.01 0.01 0.01 0.00 0.00 0.00 0.00 0.00 0.00 0.00 0.00 0.00 0.00 0.00 0.00 0.00 0.00 0.00 0.01 0.01 0.01 0.02 0.02 0.03 0.04 0.04 0.04 0.05 0.06 0.07 0.07 0.06 0.05 0.05 0.05 0.05 0.05 0.05 0.05 0.04 0.04 0.05 0.04 0.04
0.00 0.01 0.01 0.00 0.00 0.00 0.00 0.00 0.00 0.00 0.00 0.00 0.00 0.00 0.00 0.00 0.00 0.00 0.00 0.01 0.01 0.02 0.03 0.03 0.04 0.04 0.05 0.05 0.06 0.07 0.07 0.07 0.05 0.05 0.05 0.05 0.05 0.05 0.05 0.05 0.05 0.05 0.04 0.04
0.00 0.00 0.00 0.00 0.00 0.00 0.00 0.00 0.00 0.00 0.00 0.00 0.00 0.00 0.00 0.00 0.00 0.00 0.01 0.01 0.01 0.02 0.02 0.03 0.03 0.04 0.04 0.05 0.05 0.06 0.07 0.07 0.06 0.05 0.05 0.05 0.05 0.05 0.05 0.05 0.05 0.04 0.04 0.03
0.00 0.00 0.00 0.00 0.00 0.00 0.00 0.00 0.00 0.00 0.00 0.00 0.00 0.00 0.00 0.01 0.01 0.01 0.01 0.01 0.01 0.02 0.02 0.02 0.03 0.03 0.04 0.05 0.06 0.06 0.06 0.06 0.06 0.05 0.04 0.04 0.04 0.05 0.05 0.05 0.05 0.05 0.04 0.03
0.00 0.00 0.00 0.00 0.00 0.00 0.00 0.00 0.00 0.00 0.01 0.01 0.01 0.01 0.01 0.01 0.01 0.01 0.01 0.01 0.01 0.01 0.02 0.02 0.02 0.02 0.03 0.04 0.05 0.05 0.05 0.05 0.05 0.05 0.04 0.03 0.03 0.04 0.04 0.04 0.04 0.05 0.05 0.05
0.00 0.00 0.00 0.00 0.00 0.00 0.00 0.00 0.00 0.01 0.01 0.01 0.01 0.01 0.01 0.01 0.01 0.01 0.01 0.01 0.01 0.01 0.01 0.01 0.01 0.01 0.02 0.02 0.03 0.03 0.03 0.03 0.03 0.04 0.04 0.03 0.03 0.03 0.03 0.03 0.04 0.05 0.05 0.06
0.00 0.00 0.00 0.00 0.00 0.00 0.00 0.00 0.00 0.00 0.00 0.00 0.00 0.00 0.01 0.01 0.01 0.01 0.01 0.01 0.01 0.01 0.01 0.01 0.01 0.01 0.01 0.01 0.02 0.02 0.02 0.02 0.02 0.02 0.03 0.03 0.04 0.04 0.04 0.04 0.04 0.05 0.05 0.05
0.00 0.00 0.00 0.00 0.00 0.00 0.00 0.00 0.00 0.00 0.00 0.00 0.00 0.00 0.00 0.00 0.00 0.01 0.01 0.01 0.01 0.01 0.01 0.01 0.01 0.01 0.01 0.01 0.01 0.01 0.01 0.01 0.01 0.02 0.02 0.03 0.04 0.04 0.04 0.04 0.05 0.05 0.05 0.05
0.00 0.00 0.00 0.00 0.00 0.00 0.00 0.00 0.00 0.00 0.00 0.00 0.00 0.00 0.00 0.01 0.00 0.00 0.00 0.01 0.01 0.01 0.01 0.01 0.01 0.01 0.01 0.01 0.01 0.01 0.01 0.01 0.01 0.02 0.02 0.02 0.03 0.04 0.04 0.04 0.04 0.05 0.05 0.05
0.00 0.00 0.00 0.00 0.00 0.00 0.00 0.00 0.00 0.00 0.00 0.00 0.00 0.00 0.01 0.01 0.01 0.01 0.01 0.01 0.01 0.00 0.01 0.01 0.01 0.01 0.01 0.01 0.01 0.01 0.01 0.01 0.01 0.01 0.02 0.02 0.02 0.03 0.03 0.04 0.04 0.04 0.04 0.04
0.00 0.00 0.00 0.00 0.00 0.00 0.00 0.00 0.00 0.00 0.00 0.00 0.00 0.00 0.01 0.01 0.01 0.01 0.01 0.01 0.01 0.01 0.01 0.01 0.02 0.01 0.01 0.01 0.01 0.01 0.01 0.01 0.01 0.01 0.01 0.02 0.02 0.02 0.02 0.03 0.03 0.04 0.03 0.03
0.00 0.00 0.00 0.00 0.00 0.00 0.00 0.00 0.00 0.00 0.00 0.00 0.00 0.00 0.01 0.01 0.01 0.01 0.01 0.01 0.01 0.01 0.01 0.02 0.02 0.01 0.01 0.01 0.01 0.01 0.01 0.01 0.01 0.01 0.01 0.01 0.01 0.01 0.02 0.02 0.02 0.03 0.03 0.03
MSLP
1030.99 1031.89 1032.73 1033.38 1033.73 1033.67 1033.12 1032.06 1030.50 1028.51 1026.19 1023.69 1021.18 1018.78 1016.63 1014.77 1013.24 1012.00 1010.99 1010.13 1009.35 1008.59 1007.81 1007.01 1006.22 1005.49 1004.86 1004.37 1004.04 1003.86 1003.81 1003.82 1003.85 1003.86 1003.80 1003.67 1003.48 1003.27 1003.10 1003.03 1003.11 1003.39 1003.89 1004.61
1031.34 1032.02 1032.56 1032.89 1032.93 1032.60 1031.88 1030.74 1029.22 1027.36 1025.26 1023.03 1020.78 1018.62 1016.63 1014.84 1013.27 1011.91 1010.71 1009.62 1008.61 1007.63 1006.70 1005.80 1004.99 1004.29 1003.72 1003.33 1003.09 1002.99 1002.98 1003.03 1003.07 1003.06 1003.00 1002.87 1002.71 1002.56 1002.49 1002.54 1002.77 1003.21 1003.88 1004.77
1031.72 1032.11 1032.32 1032.30 1032.01 1031.43 1030.53 1029.34 1027.87 1026.17 1024.32 1022.37 1020.40 1018.47 1016.63 1014.90 1013.28 1011.78 1010.36 1009.03 1007.76 1006.56 1005.45 1004.45 1003.60 1002.92 1002.43 1002.14 1002.02 1002.02 1002.10 1002.21 1002.29 1002.32 1002.29 1002.21 1002.12 1002.06 1002.10 1002.29 1002.68 1003.28 1004.11 1005.13
1031.99 1032.08 1031.96 1031.61 1031.03 1030.21 1029.18 1027.96 1026.57 1025.05 1023.44 1021.76 1020.06 1018.34 1016.63 1014.94 1013.26 1011.61 1009.98 1008.38 1006.85 1005.42 1004.13 1003.01 1002.12 1001.45 1001.03 1000.84 1000.83 1000.95 1001.14 1001.35 1001.52 1001.64 1001.69 1001.70 1001.71 1001.78 1001.97 1002.31 1002.85 1003.60 1004.56 1005.69
1032.01 1031.83 1031.42 1030.80 1029.98 1029.00 1027.89 1026.69 1025.41 1024.07 1022.69 1021.27 1019.80 1018.27 1016.68 1015.01 1013.26 1011.46 1009.61 1007.78 1006.00 1004.34 1002.86 1001.63 1000.66 1000.00 999.62 999.51 999.60 999.84 1000.16 1000.48 1000.78 1001.01 1001.19 1001.34 1001.51 1001.73 1002.07 1002.57 1003.26 1004.14 1005.20 1006.41
1031.64 1031.25 1030.63 1029.82 1028.86 1027.80 1026.69 1025.56 1024.42 1023.28 1022.13 1020.94 1019.68 1018.31 1016.81 1015.15 1013.34 1011.40 1009.38 1007.33 1005.33 1003.46 1001.82 1000.45 999.41 998.71 998.35 998.29 998.46 998.80 999.22 999.67 1000.10 1000.49 1000.83 1001.15 1001.48 1001.88 1002.39 1003.05 1003.87 1004.85 1005.98 1007.23
1030.82 1030.30 1029.56 1028.67 1027.68 1026.64 1025.60 1024.60 1023.64 1022.71 1021.78 1020.80 1019.72 1018.49 1017.06 1015.42 1013.57 1011.53 1009.37 1007.15 1004.97 1002.94 1001.15 999.66 998.53 997.78 997.39 997.34 997.55 997.95 998.46 999.02 999.58 1000.11 1000.62 1001.12 1001.64 1002.22 1002.89 1003.69 1004.62 1005.68 1006.86 1008.11
1029.56 1028.98 1028.24 1027.38 1026.46 1025.53 1024.65 1023.84 1023.08 1022.36 1021.64 1020.86 1019.94 1018.83 1017.48 1015.86 1013.99 1011.90 1009.65 1007.32 1005.03 1002.88 1000.98 999.39 998.17 997.35 996.91 996.83 997.03 997.44 998.00 998.63 999.29 999.96 1000.62 1001.28 1001.97 1002.72 1003.54 1004.46 1005.49 1006.60 1007.80 1009.04
1027.94 1027.40 1026.74 1026.01 1025.25 1024.53 1023.87 1023.28 1022.75 1022.25 1021.72 1021.11 1020.32 1019.31 1018.03 1016.46 1014.61 1012.51 1010.23 1007.87 1005.53 1003.33 1001.36 999.70 998.41 997.51 997.00 996.85 997.01 997.39 997.95 998.61 999.33 1000.09 1000.87 1001.67 1002.50 1003.38 1004.32 1005.34 1006.43 1007.58 1008.78 1010.00
1026.15 1025.71 1025.20 1024.67 1024.15 1023.68 1023.28 1022.94 1022.64 1022.34 1021.98 1021.50 1020.83 1019.91 1018.69 1017.18 1015.37 1013.31 1011.07 1008.74 1006.43 1004.24 1002.26 1000.58 999.24 998.28 997.70 997.47 997.54 997.87 998.38 999.02 999.76 1000.56 1001.40 1002.29 1003.22 1004.20 1005.23 1006.31 1007.44 1008.61 1009.81 1011.00
1024.36 1024.07 1023.77 1023.49 1023.24 1023.06 1022.92 1022.82 1022.74 1022.61 1022.38 1022.01 1021.41 1020.55 1019.39 1017.94 1016.20 1014.23 1012.08 1009.85 1007.63 1005.51 1003.59 1001.93 1000.60 999.60 998.95 998.64 998.62 998.86 999.29 999.87 1000.58 1001.37 1002.24 1003.17 1004.14 1005.17 1006.25 1007.37 1008.53 1009.70 1010.88 1012.04
1022.76 1022.65 1022.58 1022.57 1022.61 1022.70 1022.81 1022.93 1023.02 1023.02 1022.89 1022.57 1022.01 1021.18 1020.07 1018.68 1017.02 1015.16 1013.14 1011.05 1008.98 1007.00 1005.19 1003.61 1002.31 1001.32 1000.64 1000.26 1000.16 1000.29 1000.63 1001.13 1001.77 1002.52 1003.36 1004.28 1005.26 1006.31 1007.40 1008.53 1009.68 1010.85 1012.01 1013.15
1021.49 1021.57 1021.74 1021.98 1022.28 1022.62 1022.95 1023.24 1023.45 1023.53 1023.43 1023.13 1022.57 1021.75 1020.66 1019.32 1017.76 1016.01 1014.15 1012.23 1010.34 1008.53 1006.88 1005.42 1004.21 1003.26 1002.57 1002.16 1001.99 1002.04 1002.28 1002.69 1003.25 1003.93 1004.72 1005.60 1006.55 1007.58 1008.66 1009.77 1010.91 1012.06 1013.20 1014.32
1020.61 1020.88 1021.27 1021.74 1022.27 1022.80 1023.30 1023.71 1023.99 1024.10 1024.00 1023.67 1023.08 1022.24 1021.15 1019.85 1018.36 1016.74 1015.03 1013.30 1011.60 1009.99 1008.52 1007.22 1006.12 1005.25 1004.60 1004.18 1003.96 1003.95 1004.12 1004.44 1004.92 1005.52 1006.24 1007.07 1007.98 1008.97 1010.01 1011.10 1012.22 1013.34 1014.45 1015.54
1020.14 1020.58 1021.16 1021.82 1022.52 1023.20 1023.81 1024.28 1024.58 1024.68 1024.54 1024.15 1023.51 1022.63 1021.53 1020.26 1018.84 1017.33 1015.77 1014.22 1012.72 1011.31 1010.02 1008.89 1007.93 1007.15 1006.57 1006.17 1005.95 1005.90 1006.01 1006.28 1006.68 1007.22 1007.88 1008.64 1009.50 1010.44 1011.45 1012.50 1013.58 1014.67 1015.75 1016.81
1020.02 1020.62 1021.36 1022.16 1022.98 1023.75 1024.41 1024.90 1025.18 1025.23 1025.02 1024.57 1023.86 1022.94 1021.83 1020.57 1019.22 1017.81 1016.39 1015.00 1013.68 1012.45 1011.35 1010.38 1009.56 1008.90 1008.39 1008.04 1007.84 1007.79 1007.88 1008.11 1008.47 1008.95 1009.56 1010.27 1011.08 1011.97 1012.93 1013.94 1014.98 1016.03 1017.06 1018.07
1020.20 1020.93 1021.78 1022.68 1023.56 1024.37 1025.02 1025.49 1025.72 1025.70 1025.43 1024.90 1024.13 1023.17 1022.06 1020.83 1019.54 1018.22 1016.92 1015.67 1014.51 1013.45 1012.50 1011.68 1011.00 1010.45 1010.03 1009.74 1009.59 1009.56 1009.65 1009.87 1010.21 1010.66 1011.23 1011.91 1012.68 1013.52 1014.44 1015.40 1016.38 1017.38 1018.36 1019.30
1020.58 1021.40 1022.32 1023.27 1024.17 1024.96 1025.58 1025.99 1026.15 1026.06 1025.72 1025.13 1024.33 1023.36 1022.25 1021.06 1019.83 1018.61 1017.42 1016.30 1015.27 1014.34 1013.53 1012.84 1012.28 1011.82 1011.49 1011.28 1011.17 1011.18 1011.30 1011.53 1011.87 1012.31 1012.86 1013.51 1014.25 1015.05 1015.92 1016.82 1017.75 1018.68 1019.59 1020.47
1021.08 1021.97 1022.91 1023.85 1024.72 1025.45 1026.00 1026.33 1026.42 1026.27 1025.87 1025.25 1024.44 1023.48 1022.41 1021.29 1020.14 1019.01 1017.92 1016.92 1016.01 1015.20 1014.50 1013.91 1013.44 1013.07 1012.81 1012.66 1012.62 1012.67 1012.82 1013.08 1013.43 1013.88 1014.43 1015.05 1015.76 1016.53 1017.34 1018.19 1019.05 1019.91 1020.74 1021.54
1021.63 1022.54 1023.47 1024.37 1025.16 1025.80 1026.26 1026.50 1026.52 1026.31 1025.88 1025.26 1024.47 1023.55 1022.56 1021.52 1020.47 1019.44 1018.47 1017.57 1016.76 1016.05 1015.44 1014.94 1014.54 1014.24 1014.05 1013.95 1013.96 1014.05 1014.24 1014.53 1014.90 1015.35 1015.89 1016.51 1017.18 1017.91 1018.67 1019.46 1020.25 1021.03 1021.79 1022.50
1022.18 1023.08 1023.96 1024.77 1025.46 1026.00 1026.35 1026.50 1026.45 1026.19 1025.76 1025.16 1024.42 1023.59 1022.69 1021.76 1020.82 1019.92 1019.06 1018.26 1017.55 1016.92 1016.39 1015.96 1015.62 1015.38 1015.23 1015.18 1015.22 1015.36 1015.58 1015.88 1016.27 1016.73 1017.26 1017.85 1018.50 1019.18 1019.89 1020.61 1021.33 1022.03 1022.71 1023.35
1022.69 1023.55 1024.36 1025.06 1025.64 1026.05 1026.30 1026.36 1026.25 1025.97 1025.55 1024.99 1024.33 1023.60 1022.81 1022.01 1021.21 1020.42 1019.68 1019.00 1018.38 1017.83 1017.37 1016.99 1016.70 1016.50 1016.39 1016.37 1016.45 1016.60 1016.84 1017.16 1017.55 1018.01 1018.53 1019.09 1019.70 1020.33 1020.98 1021.64 1022.29 1022.92 1023.53 1024.10
1023.13 1023.93 1024.65 1025.24 1025.70 1026.00 1026.15 1026.14 1025.99 1025.71 1025.31 1024.81 1024.24 1023.62 1022.96 1022.29 1021.62 1020.97 1020.34 1019.76 1019.23 1018.76 1018.36 1018.03 1017.79 1017.62 1017.54 1017.55 1017.64 1017.81 1018.06 1018.38 1018.76 1019.20 1019.69 1020.23 1020.79 1021.37 1021.96 1022.56 1023.15 1023.72 1024.27 1024.78
1023.48 1024.22 1024.84 1025.34 1025.69 1025.90 1025.97 1025.91 1025.74 1025.47 1025.11 1024.68 1024.21 1023.69 1023.16 1022.61 1022.07 1021.54 1021.02 1020.54 1020.10 1019.70 1019.36 1019.08 1018.88 1018.74 1018.69 1018.71 1018.82 1018.99 1019.24 1019.55 1019.92 1020.33 1020.79 1021.28 1021.79 1022.32 1022.86 1023.40 1023.93 1024.45 1024.95 1025.42
1023.72 1024.39 1024.94 1025.36 1025.64 1025.79 1025.81 1025.73 1025.56 1025.32 1025.01 1024.66 1024.27 1023.86 1023.43 1023.00 1022.57 1022.14 1021.72 1021.33 1020.96 1020.63 1020.35 1020.12 1019.96 1019.86 1019.82 1019.87 1019.98 1020.16 1020.39 1020.69 1021.03 1021.41 1021.82 1022.27 1022.73 1023.21 1023.70 1024.19 1024.68 1025.15 1025.62 1026.06
1023.84 1024.46 1024.96 1025.33 1025.57 1025.69 1025.71 1025.64 1025.50 1025.29 1025.05 1024.76 1024.46 1024.13 1023.80 1023.45 1023.11 1022.76 1022.42 1022.10 1021.80 1021.54 1021.31 1021.13 1021.01 1020.94 1020.94 1021.00 1021.12 1021.30 1021.52 1021.80 1022.11 1022.45 1022.83 1023.22 1023.64 1024.07 1024.51 1024.95 1025.40 1025.84 1026.27 1026.69
1023.82 1024.41 1024.89 1025.24 1025.48 1025.62 1025.67 1025.64 1025.54 1025.40 1025.21 1025.00 1024.76 1024.51 1024.24 1023.96 1023.67 1023.39 1023.11 1022.85 1022.60 1022.39 1022.22 1022.09 1022.01 1021.98 1022.01 1022.10 1022.23 1022.41 1022.63 1022.88 1023.17 1023.48 1023.81 1024.16 1024.52 1024.90 1025.30 1025.70 1026.11 1026.52 1026.92 1027.32
Thickness
5463 5467 5464 5464 5465 5462 5461 5459 5458 5472 5475 5488 5484 5479 5476 5473 5472 5472 5470 5467 5464 5462 5460 5459 5459 5460 5460 5460 5461 5461 5460 5460 5460 5461 5461 5461 5462 5461 5461 5460 5460 5460 5459 5460
5457 5462 5460 5461 5465 5462 5462 5462 5461 5466 5472 5479 5474 5471 5470 5467 5467 5465 5464 5462 5459 5456 5455 5454 5453 5453 5453 5454 5454 5453 5453 5453 5453 5454 5454 5454 5454 5454 5454 5454 5453 5452 5452 5452
5449 5450 5453 5458 5467 5464 5463 5464 5463 5465 5473 5470 5467 5466 5465 5463 5460 5458 5457 5455 5453 5451 5450 5448 5447 5447 5447 5448 5447 5446 5446 5446 5446 5447 5447 5447 5447 5447 5447 5446 5445 5444 5444 5443
5435 5439 5446 5473 5471 5469 5465 5466 5464 5465 5466 5464 5463 5462 5460 5457 5453 5451 5451 5449 5447 5445 5444 5443 5442 5442 5441 5441 5440 5440 5440 5439 5439 5439 5440 5440 5439 5439 5438 5438 5437 5436 5436 5436
5425 5430 5445 5465 5470 5464 5460 5461 5463 5461 5460 5458 5456 5455 5454 5453 5449 5447 5445 5443 5440 5438 5437 5437 5436 5435 5434 5434 5434 5433 5433 5433 5433 5433 5433 5433 5431 5430 5430 5429 5428 5427 5427 5426
5421 5429 5442 5470 5467 5462 5457 5456 5461 5457 5454 5451 5449 5446 5451 5449 5444 5442 5440 5437 5435 5433 5431 5430 5429 5429 5428 5427 5427 5427 5427 5427 5426 5426 5425 5425 5424 5422 5422 5420 5419 5419 5419 5418
5419 5423 5442 5459 5457 5457 5453 5461 5460 5455 5451 5447 5443 5444 5444 5441 5438 5437 5434 5431 5430 5428 5425 5424 5423 5422 5422 5421 5421 5421 5421 5420 5420 5419 5418 5416 5415 5415 5414 5413 5412 5411 5411 5410
5413 5419 5442 5455 5450 5450 5454 5455 5452 5450 5447 5443 5440 5438 5436 5434 5432 5430 5427 5425 5424 5422 5420 5419 5417 5416 5415 5415 5416 5415 5415 5414 5413 5412 5410 5409 5408 5407 5406 5406 5404 5403 5403 5403
5432 5447 5453 5448 5450 5451 5448 5447 5446 5443 5441 5438 5434 5432 5431 5428 5426 5424 5422 5419 5418 5416 5414 5413 5411 5410 5409 5410 5409 5409 5408 5407 5406 5404 5403 5402 5401 5400 5399 5398 5397 5396 5396 5396
5428 5442 5445 5443 5443 5444 5442 5442 5441 5438 5436 5434 5430 5427 5425 5422 5420 5418 5416 5414 5412 5410 5408 5407 5406 5406 5405 5405 5403 5402 5401 5400 5399 5398 5396 5395 5394 5393 5392 5391 5390 5390 5389 5390
5428 5439 5440 5444 5441 5441 5439 5436 5434 5433 5431 5428 5425 5422 5419 5416 5414 5413 5411 5408 5406 5404 5403 5402 5401 5400 5400 5400 5398 5396 5395 5395 5394 5393 5390 5389 5387 5386 5385 5385 5385 5385 5385 5384
5441 5444 5439 5443 5442 5438 5434 5432 5429 5427 5425 5423 5420 5417 5414 5411 5409 5407 5405 5403 5401 5399 5398 5396 5395 5395 5395 5394 5393 5391 5390 5389 5388 5387 5386 5383 5381 5379 5378 5378 5379 5380 5380 5379
5441 5441 5437 5439 5436 5433 5429 5427 5424 5422 5419 5417 5414 5411 5408 5405 5403 5401 5400 5398 5396 5395 5393 5391 5389 5389 5389 5388 5388 5386 5385 5384 5383 5382 5381 5378 5376 5374 5372 5372 5372 5372 5372 5372
5434 5432 5431 5432 5429 5427 5423 5421 5418 5415 5412 5410 5407 5404 5402 5399 5398 5396 5395 5394 5392 5389 5387 5385 5384 5384 5383 5383 5382 5381 5380 5380 5379 5377 5375 5373 5370 5369 5367 5366 5364 5363 5364 5364
5429 5427 5427 5427 5423 5419 5416 5412 5410 5407 5404 5402 5400 5398 5396 5394 5393 5392 5390 5388 5386 5384 5382 5380 5379 5378 5377 5377 5376 5375 5374 5373 5372 5371 5369 5367 5365 5363 5361 5359 5357 5356 5356 5356
5423 5421 5419 5417 5415 5412 5408 5405 5404 5402 5399 5396 5393 5392 5390 5389 5388 5386 5384 5382 5380 5379 5377 5375 5375 5374 5372 5370 5369 5368 5367 5367 5366 5364 5362 5360 5358 5356 5355 5353 5352 5350 5349 5348
5415 5415 5413 5410 5409 5406 5404 5402 5400 5398 5394 5391 5389 5387 5384 5383 5381 5379 5378 5376 5375 5374 5372 5371 5370 5369 5367 5365 5363 5362 5360 5359 5359 5357 5355 5353 5351 5350 5348 5347 5346 5344 5343 5343
5414 5415 5412 5409 5405 5402 5400 5397 5394 5392 5389 5387 5384 5381 5379 5377 5376 5375 5372 5370 5368 5367 5366 5365 5364 5362 5360 5359 5358 5356 5354 5352 5351 5349 5347 5346 5345 5344 5342 5341 5340 5339 5337 5337
5407 5406 5405 5403 5400 5397 5394 5391 5388 5386 5383 5380 5377 5375 5374 5372 5370 5368 5365 5363 5362 5362 5361 5360 5359 5357 5354 5353 5351 5350 5348 5346 5344 5342 5340 5340 5338 5337 5336 5335 5334 5333 5331 5330
5400 5399 5397 5395 5393 5390 5388 5385 5382 5379 5376 5374 5371 5369 5368 5366 5364 5362 5359 5358 5358 5357 5356 5354 5352 5350 5348 5347 5345 5343 5341 5339 5337 5335 5334 5332 5331 5329 5329 5328 5327 5326 5324 5323
5391 5390 5389 5387 5385 5383 5381 5379 5375 5373 5371 5368 5367 5365 5364 5361 5358 5356 5354 5353 5353 5352 5350 5349 5346 5344 5342 5340 5338 5336 5334 5332 5330 5327 5326 5324 5323 5322 5321 5320 5320 5319 5318 5317
5383 5381 5380 5379 5377 5375 5373 5371 5369 5367 5364 5362 5361 5359 5357 5355 5352 5350 5349 5348 5348 5346 5344 5341 5340 5338 5336 5334 5331 5328 5326 5324 5322 5320 5318 5316 5315 5315 5314 5313 5312 5312 5311 5310
5374 5373 5372 5371 5369 5367 5365 5363 5361 5360 5358 5357 5355 5353 5351 5349 5347 5345 5343 5342 5341 5340 5337 5335 5334 5332 5330 5326 5323 5320 5318 5316 5314 5312 5310 5309 5308 5308 5307 5306 5306 5305 5304 5303
5367 5366 5364 5362 5360 5358 5357 5356 5354 5353 5351 5350 5349 5347 5345 5342 5340 5339 5338 5337 5335 5333 5330 5329 5327 5325 5322 5317 5315 5312 5310 5308 5306 5304 5303 5302 5302 5301 5301 5300 5299 5299 5298 5297
5359 5358 5356 5354 5353 5352 5351 5348 5346 5344 5343 5342 5341 5340 5338 5337 5335 5333 5330 5329 5328 5326 5323 5321 5320 5317 5312 5309 5307 5304 5303 5301 5300 5298 5297 5296 5295 5295 5294 5293 5293 5292 5292 5291
5352 5351 5350 5349 5347 5346 5344 5341 5339 5338 5337 5335 5333 5332 5330 5328 5327 5325 5323 5321 5319 5317 5315 5312 5310 5308 5304 5301 5299 5297 5295 5294 5292 5291 5290 5289 5288 5287 5287 5287 5286 5286 5285 5285
5343 5342 5341 5341 5340 5339 5337 5335 5333 5331 5330 5329 5327 5325 5323 5320 5318 5316 5314 5312 5309 5307 5305 5303 5300 5298 5296 5294 5291 5290 5288 5287 5285 5284 5282 5281 5281 5280 5280 5280 5280 5279 5279 5278